RH
39 37 34 38 37 52 72 60 52 35 36 32 38 40 45 50 53 54 54 53 52 51 53 55 50 47 46 46 46 46 47 49 50 49 49 49 46 44 41 37 34 32 31 28
46 27 32 40 33 33 44 53 53 48 46 28 31 35 41 44 45 43 43 44 44 45 46 44 37 36 36 37 40 46 52 55 54 53 51 48 46 42 39 36 35 33 29 24
40 31 36 35 26 27 33 32 33 34 28 28 32 33 36 37 38 39 41 44 45 46 43 38 36 36 36 37 38 41 48 54 58 55 51 48 44 40 38 35 32 27 27 32
56 38 44 32 25 31 31 28 26 25 27 29 28 32 34 35 35 40 45 47 46 39 37 38 39 40 41 42 43 46 49 57 58 55 50 44 40 38 34 28 29 34 38 43
54 34 21 28 25 28 27 25 23 24 26 26 30 35 38 38 39 42 46 48 45 40 40 41 42 43 44 47 49 52 56 58 55 48 43 40 36 27 29 34 37 45 40 20
35 38 26 29 25 25 25 25 23 24 27 32 34 36 32 43 46 50 46 40 40 41 42 43 45 47 48 50 54 56 55 50 44 41 36 25 29 32 42 45 27 16 15 21
39 37 23 24 26 30 30 32 27 25 29 34 31 32 31 40 50 45 42 41 42 44 44 44 44 45 46 46 46 44 42 40 32 25 27 38 44 36 21 15 14 22 30 34
33 38 43 28 31 30 28 32 32 29 32 34 38 34 43 49 48 43 42 44 46 45 44 44 44 44 43 42 41 35 28 25 31 43 40 30 20 14 16 23 26 28 36 41
29 29 33 35 31 34 36 34 35 33 38 37 43 45 49 54 48 46 45 45 47 46 46 45 44 42 38 34 29 26 32 45 39 32 22 14 16 19 24 25 29 33 42 55
34 32 32 34 37 34 34 36 34 31 37 39 42 42 53 54 49 46 46 47 48 48 47 46 43 36 31 28 29 44 43 36 27 18 15 18 20 22 26 30 34 38 46 56
33 31 32 37 38 36 36 36 35 34 33 33 42 44 46 48 46 47 46 48 50 50 48 46 39 32 28 36 49 42 36 26 17 16 18 21 24 28 29 32 38 45 49 51
33 32 32 35 40 38 39 40 38 38 37 35 40 45 45 48 47 46 47 50 52 51 49 45 36 31 42 50 43 37 28 18 16 20 23 27 30 33 42 46 40 46 53 66
40 52 50 51 49 46 46 44 40 38 39 40 39 45 43 48 47 48 49 51 53 52 51 43 34 42 52 46 40 31 20 18 22 24 29 33 36 43 47 49 64 74 78 97
60 54 52 52 54 53 50 49 48 46 43 42 44 45 47 49 49 51 53 54 56 54 49 39 39 52 49 42 35 23 19 23 27 30 35 38 43 50 59 72 79 69 66 96
68 59 57 53 51 55 53 52 52 53 50 48 49 52 52 52 53 54 56 57 57 53 45 38 51 51 45 38 26 20 24 27 30 36 38 42 51 61 75 89 100 100 99 92
62 59 59 60 62 59 58 59 59 59 57 56 57 58 58 58 58 58 59 58 54 48 40 49 52 46 41 29 21 24 27 30 36 40 46 54 63 73 91 100 100 100 100 100
68 74 70 69 66 62 65 63 62 62 61 61 60 59 59 58 59 59 59 55 47 42 50 52 47 42 31 21 25 29 32 37 41 46 52 61 64 99 100 100 100 100 100 100
74 79 79 75 74 72 71 68 64 63 63 62 61 61 60 59 58 58 56 48 44 52 53 48 41 30 22 24 28 31 36 43 48 53 58 60 87 100 100 100 100 100 100 100
76 76 76 74 70 69 70 71 70 68 67 65 63 59 56 56 57 55 49 48 52 53 47 38 25 22 24 26 31 37 44 50 55 59 65 85 99 100 100 100 100 100 100 100
71 70 69 67 66 65 67 67 65 62 60 59 58 55 54 54 52 50 51 52 49 41 26 22 24 25 27 32 39 47 53 57 61 69 71 81 99 100 100 100 100 100 100 100
63 64 63 62 60 59 58 57 58 58 58 57 55 53 52 50 50 49 45 37 24 27 31 29 27 28 32 41 50 55 59 64 72 75 76 76 82 94 98 100 100 100 98 92
58 57 57 57 57 57 57 56 56 56 55 54 52 51 48 44 39 30 28 39 37 32 31 30 30 35 43 52 58 61 67 74 78 79 81 81 90 87 89 94 96 90 90 89
52 52 53 53 53 52 53 53 52 51 50 46 44 40 34 27 31 46 41 40 41 39 35 35 40 46 55 62 64 70 78 81 82 82 84 82 82 84 88 90 91 92 91 89
42 44 48 53 55 54 51 49 47 46 43 39 34 28 28 42 47 44 55 58 56 48 41 41 44 52 62 67 73 90 95 89 87 87 84 85 83 86 88 89 91 93 91 88
53 52 51 52 55 56 54 50 47 44 38 31 35 48 54 53 58 62 60 52 45 42 41 44 52 62 71 79 85 90 91 90 89 88 86 87 85 87 90 90 93 93 90 88
61 62 61 59 60 62 59 54 45 46 59 68 70 65 61 64 69 68 60 50 44 44 49 57 64 73 80 86 91 91 90 89 88 86 89 91 89 88 89 91 94 93 91 91
65 62 65 67 65 65 65 65 65 72 77 79 80 79 78 74 67 57 50 50 53 59 66 71 76 81 86 88 89 89 89 89 88 88 89 90 88 88 90 93 94 93 92 92
Wind_Speed
15 18 15 15 14 11 14 16 6 2 6 6 4 7 9 11 14 16 15 14 14 14 13 13 13 12 11 10 10 10 10 9 10 9 8 7 5 5 6 6 7 8 9 12
8 5 5 11 10 13 13 15 16 18 17 1 9 10 10 12 14 15 15 13 13 12 12 10 10 9 8 8 8 9 11 12 11 9 8 6 5 5 4 5 7 9 10 11
5 6 8 7 2 9 4 6 9 10 7 11 11 9 12 13 14 15 14 12 11 10 9 7 6 6 6 6 7 9 10 11 11 10 8 6 4 3 4 6 7 8 10 14
6 10 2 2 1 2 5 5 5 2 8 10 11 13 13 12 14 12 11 10 9 7 7 7 6 6 6 7 7 9 10 10 10 9 7 4 2 4 5 6 8 11 15 19
3 7 7 3 2 2 4 3 5 3 9 12 14 14 9 8 9 10 10 8 8 7 7 7 8 8 8 9 10 10 10 10 10 7 4 1 2 3 6 9 13 17 20 22
3 4 4 4 2 1 2 2 6 8 10 13 15 7 7 14 12 11 10 8 7 7 8 8 10 10 10 10 11 11 11 9 7 4 2 0 3 7 11 15 17 19 20 21
7 4 1 4 3 1 3 3 3 9 15 17 10 3 17 22 14 12 9 8 7 8 9 10 10 10 10 10 10 10 8 6 5 3 1 4 9 12 14 16 18 19 19 19
2 3 2 1 2 4 4 3 2 8 14 16 4 6 16 19 18 15 11 9 9 8 9 10 10 9 9 9 9 8 7 5 2 2 5 9 11 13 15 16 17 18 19 20
3 2 2 0 2 2 4 5 3 7 10 13 8 10 16 18 17 15 11 10 9 9 10 10 10 9 9 9 9 7 5 1 2 6 9 10 12 14 15 17 18 20 21 21
3 2 2 1 3 2 4 2 1 3 8 12 11 11 15 17 16 14 12 10 11 11 11 11 11 11 9 9 7 5 3 3 6 8 10 12 14 15 16 18 19 21 22 22
4 2 1 3 2 1 1 1 2 2 4 8 11 13 16 17 15 14 12 11 11 12 12 12 12 11 10 8 6 4 3 6 8 9 11 12 14 16 17 18 20 21 22 21
1 5 3 5 2 3 3 3 2 2 2 5 11 12 15 14 14 14 13 12 13 14 13 13 13 12 10 8 5 4 5 7 9 10 12 13 15 17 18 21 22 21 20 20
2 3 2 3 4 4 3 4 5 4 5 5 8 11 13 14 14 13 12 13 14 15 15 14 13 11 9 6 5 5 7 8 10 11 12 14 16 18 20 20 18 19 18 17
3 3 1 2 1 4 7 6 6 5 8 9 10 12 13 13 13 14 14 13 14 15 15 14 13 10 8 6 7 8 8 9 10 12 13 15 17 18 19 21 24 25 20 18
2 1 5 9 10 9 9 9 6 5 6 7 9 10 11 12 12 12 12 14 15 16 15 14 12 10 8 8 8 8 9 10 11 13 14 16 17 18 19 20 20 21 22 19
6 6 4 3 3 4 4 3 3 4 4 5 7 9 10 10 10 11 12 14 15 16 14 12 11 10 9 9 9 9 10 10 11 13 14 15 17 18 19 18 20 20 19 20
4 3 1 1 3 3 3 2 2 3 4 6 7 8 8 8 9 11 13 14 15 13 11 11 10 9 10 10 10 10 10 12 12 13 14 16 18 18 17 17 18 17 18 18
3 2 1 1 1 1 0 2 2 3 4 5 5 6 7 7 9 11 12 13 13 11 10 10 10 10 11 10 11 12 12 12 13 14 16 18 17 16 18 16 16 17 19 20
2 2 2 2 2 2 1 3 4 4 4 5 5 6 7 7 8 10 11 12 11 10 9 10 10 11 11 12 13 13 13 13 14 14 17 17 18 16 15 15 16 17 19 20
4 4 4 4 4 4 4 3 3 3 4 5 6 7 8 9 9 10 10 9 8 9 8 9 10 12 13 13 13 13 14 14 14 15 18 17 17 16 15 15 15 16 19 18
7 7 6 6 6 5 5 4 4 3 4 5 6 6 7 8 9 9 8 7 6 7 9 11 12 13 14 14 14 14 15 14 14 17 19 19 18 16 15 15 15 16 18 17
9 8 7 6 5 4 3 3 3 3 4 5 6 7 7 7 6 6 5 5 7 9 11 13 13 14 14 14 15 16 15 15 16 18 20 20 18 18 17 16 16 19 17 16
8 7 6 4 3 2 2 2 3 4 4 5 5 5 6 6 6 5 5 7 9 12 14 13 13 14 14 16 16 16 16 16 18 19 20 21 20 19 18 17 19 19 17 15
6 5 4 3 2 1 1 2 3 4 5 5 6 6 6 6 7 7 9 11 13 14 14 15 15 16 17 18 17 17 18 18 19 21 22 22 21 19 19 19 19 18 14 12
4 4 4 4 3 3 3 4 4 5 6 6 6 7 7 8 9 11 13 15 15 15 16 17 17 17 18 18 18 19 19 20 21 23 23 23 21 20 20 20 19 14 12 10
6 4 4 3 2 2 3 4 4 4 5 5 6 7 9 11 14 16 17 17 17 18 19 18 17 17 17 19 20 21 21 22 22 23 23 23 22 21 20 19 17 13 12 10
4 4 3 3 2 2 2 3 4 5 7 8 10 12 14 17 17 17 18 20 20 20 18 18 18 19 20 21 22 22 23 22 22 23 23 22 21 20 19 18 15 13 12 11
Wind_Direction
274 277 280 274 265 234 222 236 261 247 292 8 131 129 137 135 129 127 129 134 132 126 129 140 149 157 167 178 187 194 197 199 202 206 207 209 220 250 261 265 276 287 293 296
287 289 291 260 260 249 238 242 251 264 281 261 133 132 146 143 139 131 129 126 122 122 126 130 141 155 168 183 197 205 207 206 209 204 204 211 229 251 273 289 297 299 297 298
279 325 305 266 297 231 237 263 251 259 257 150 149 144 142 142 143 138 135 131 123 117 124 132 151 164 181 194 198 196 195 202 197 199 202 212 235 279 299 299 299 307 313 307
288 305 301 64 47 323 243 300 200 279 137 154 141 138 139 145 141 135 131 125 122 128 131 133 140 149 156 164 172 176 179 181 184 191 198 209 267 294 299 315 318 310 304 304
284 313 288 115 61 355 350 102 161 118 146 129 131 128 136 149 144 140 132 128 134 139 134 137 138 138 139 142 145 151 157 165 172 176 182 234 289 318 319 311 307 306 308 308
308 296 334 34 46 333 315 170 158 145 150 146 153 166 174 174 158 146 150 146 144 144 142 142 141 139 141 142 145 147 152 156 159 164 181 355 327 312 306 306 309 312 313 314
247 270 282 46 76 309 274 40 155 174 165 164 175 45 155 167 161 166 164 162 158 153 154 153 150 147 147 149 149 149 149 151 149 134 38 318 305 306 311 315 316 319 320 322
198 240 235 56 167 330 7 43 106 174 170 175 146 131 154 162 171 176 178 172 171 170 165 163 161 157 158 157 152 150 147 136 111 321 303 306 312 318 323 324 324 325 321 318
248 29 72 154 60 64 48 39 60 161 177 184 177 159 165 169 175 181 184 182 181 182 175 171 165 162 164 159 154 145 140 181 282 305 315 319 322 324 326 327 326 324 322 321
305 114 200 167 214 261 295 330 32 177 202 196 193 186 175 175 179 186 191 193 193 187 181 177 173 173 172 163 157 176 202 284 312 315 321 323 326 326 327 327 324 323 321 317
267 199 127 73 113 32 -0 321 269 265 221 209 195 194 188 186 190 196 200 203 199 193 190 186 182 178 175 180 187 201 265 302 313 316 319 321 322 323 324 325 324 321 320 316
38 62 356 88 59 356 355 354 296 264 254 205 190 198 196 197 202 206 208 207 200 196 193 191 188 187 189 190 204 247 292 304 310 315 319 322 324 324 324 324 328 327 326 325
70 335 329 303 291 300 291 279 260 248 237 233 210 204 203 205 209 209 214 214 208 204 200 195 192 192 196 208 237 275 294 303 310 317 321 322 324 325 323 324 321 320 317 313
263 288 281 55 72 295 305 292 281 265 244 230 223 214 207 209 208 212 216 209 202 198 196 195 195 200 210 233 264 284 296 303 309 315 322 324 323 322 321 323 322 321 325 322
187 266 285 289 293 298 291 277 280 268 249 225 214 208 204 204 208 212 210 204 198 198 197 195 201 212 230 253 275 288 294 301 310 317 320 322 321 320 319 317 311 315 322 315
278 291 299 312 318 319 317 302 255 253 222 204 193 190 193 199 205 206 203 200 199 199 198 203 211 228 246 268 278 283 291 300 309 314 316 316 315 313 315 312 314 313 314 319
329 136 251 274 296 308 310 288 248 218 198 186 190 195 201 205 205 203 198 194 195 197 202 211 228 246 263 271 276 286 295 300 305 309 312 310 309 310 308 307 308 307 312 319
288 312 345 330 347 335 248 206 186 185 192 200 203 208 212 208 207 199 193 193 196 203 214 229 245 260 268 275 283 288 289 294 300 305 309 313 312 302 301 302 303 306 314 320
167 138 104 78 67 78 107 169 180 187 193 197 202 202 196 193 191 191 192 196 205 216 231 248 263 269 275 280 282 281 285 289 295 308 318 313 305 312 301 297 300 305 311 317
134 120 107 95 96 102 109 123 145 164 174 178 181 181 181 183 187 189 195 205 220 240 263 272 278 279 278 279 277 279 283 287 300 313 319 315 302 302 300 295 297 301 310 313
99 102 100 94 91 95 101 107 113 124 142 153 160 170 178 183 188 197 206 226 251 270 280 284 283 280 280 278 276 278 280 287 298 310 316 316 310 306 302 301 300 306 312 314
85 88 92 93 95 99 108 122 135 151 167 178 182 185 189 193 202 218 232 253 271 280 286 286 283 281 278 273 274 277 280 287 296 306 312 314 307 306 301 303 302 313 313 314
65 64 68 73 78 85 110 148 173 180 185 189 194 203 213 220 220 233 253 274 287 289 286 285 282 279 275 275 279 279 279 285 292 302 308 310 308 304 300 301 305 310 307 309
41 33 26 14 356 326 275 253 234 227 225 227 233 236 226 230 248 257 274 288 293 292 292 293 291 286 281 281 280 276 279 285 291 299 303 305 305 301 299 300 303 304 297 302
23 13 2 346 317 285 262 256 254 254 252 246 238 236 246 258 273 286 291 294 293 293 295 294 289 284 282 282 281 280 284 287 290 294 296 299 303 300 298 299 300 292 287 292
5 4 358 344 316 280 260 251 245 247 252 260 269 271 271 279 289 293 294 292 291 292 293 292 289 284 281 280 282 284 285 286 288 289 291 295 297 296 295 296 291 279 274 280
31 42 53 50 33 8 330 300 276 271 277 280 281 283 286 291 292 292 292 293 294 293 291 288 287 285 284 284 285 285 285 285 286 288 290 292 295 296 296 291 281 272 263 264